Year,Month,Day,Hour,Minute,Value (Times are PST for barometer in hPa)
2019,02,14,00,00,996.89
2019,02,14,00,01,996.89
2019,02,14,00,02,996.89
2019,02,14,00,03,996.89
2019,02,14,00,04,996.89
2019,02,14,00,05,996.89
2019,02,14,00,06,996.89
2019,02,14,00,07,996.89
2019,02,14,00,08,996.89
2019,02,14,00,09,996.89
2019,02,14,00,10,996.89
2019,02,14,00,11,996.89
2019,02,14,00,12,996.89
2019,02,14,00,13,996.89
2019,02,14,00,14,996.89
2019,02,14,00,15,996.78
2019,02,14,00,16,996.78
2019,02,14,00,17,996.78
2019,02,14,00,18,996.78
2019,02,14,00,19,996.78
2019,02,14,00,20,996.78
2019,02,14,00,21,996.78
2019,02,14,00,22,996.78
2019,02,14,00,23,996.78
2019,02,14,00,24,996.78
2019,02,14,00,25,996.78
2019,02,14,00,26,996.78
2019,02,14,00,27,996.78
2019,02,14,00,28,996.78
2019,02,14,00,29,996.78
2019,02,14,00,30,996.41
2019,02,14,00,31,996.41
2019,02,14,00,32,996.41
2019,02,14,00,33,996.41
2019,02,14,00,34,996.41
2019,02,14,00,35,996.41
2019,02,14,00,36,996.41
2019,02,14,00,37,996.41
2019,02,14,00,38,996.41
2019,02,14,00,39,996.41
2019,02,14,00,40,996.41
2019,02,14,00,41,996.41
2019,02,14,00,42,996.41
2019,02,14,00,43,996.41
2019,02,14,00,44,996.41
2019,02,14,00,45,996.11
2019,02,14,00,46,996.11
2019,02,14,00,47,996.11
2019,02,14,00,48,996.11
2019,02,14,00,49,996.11
2019,02,14,00,50,996.11
2019,02,14,00,51,996.11
2019,02,14,00,52,996.11
2019,02,14,00,53,996.11
2019,02,14,00,54,996.11
2019,02,14,00,55,996.11
2019,02,14,00,56,996.11
2019,02,14,00,57,996.11
2019,02,14,00,58,996.11
2019,02,14,00,59,996.11
2019,02,14,01,00,996.07
2019,02,14,01,01,996.07
2019,02,14,01,02,996.07
2019,02,14,01,03,996.07
2019,02,14,01,04,996.07
2019,02,14,01,05,996.07
2019,02,14,01,06,996.07
2019,02,14,01,07,996.07
2019,02,14,01,08,996.07
2019,02,14,01,09,996.07
2019,02,14,01,10,996.07
2019,02,14,01,11,996.07
2019,02,14,01,12,996.07
2019,02,14,01,13,996.07
2019,02,14,01,14,996.07
2019,02,14,01,15,995.87
2019,02,14,01,16,995.87
2019,02,14,01,17,995.87
2019,02,14,01,18,995.87
2019,02,14,01,19,995.87
2019,02,14,01,20,995.87
2019,02,14,01,21,995.87
2019,02,14,01,22,995.87
2019,02,14,01,23,995.87
2019,02,14,01,24,995.87
2019,02,14,01,25,995.87
2019,02,14,01,26,995.87
2019,02,14,01,27,995.87
2019,02,14,01,28,995.87
2019,02,14,01,29,995.87
2019,02,14,01,30,995.80
2019,02,14,01,31,995.80
2019,02,14,01,32,995.80
2019,02,14,01,33,995.80
2019,02,14,01,34,995.80
2019,02,14,01,35,995.80
2019,02,14,01,36,995.80
2019,02,14,01,37,995.80
2019,02,14,01,38,995.80
2019,02,14,01,39,995.80
2019,02,14,01,40,995.80
2019,02,14,01,41,995.80
2019,02,14,01,42,995.80
2019,02,14,01,43,995.80
2019,02,14,01,44,995.80
2019,02,14,01,45,995.40
2019,02,14,01,46,995.40
2019,02,14,01,47,995.40
2019,02,14,01,48,995.40
2019,02,14,01,49,995.40
2019,02,14,01,50,995.40
2019,02,14,01,51,995.40
2019,02,14,01,52,995.40
2019,02,14,01,53,995.40
2019,02,14,01,54,995.40
2019,02,14,01,55,995.40
2019,02,14,01,56,995.40
2019,02,14,01,57,995.40
2019,02,14,01,58,995.40
2019,02,14,01,59,995.40
2019,02,14,02,00,995.36
2019,02,14,02,01,995.36
2019,02,14,02,02,995.36
2019,02,14,02,03,995.36
2019,02,14,02,04,995.36
2019,02,14,02,05,995.36
2019,02,14,02,06,995.36
2019,02,14,02,07,995.36
2019,02,14,02,08,995.36
2019,02,14,02,09,995.36
2019,02,14,02,10,995.36
2019,02,14,02,11,995.36
2019,02,14,02,12,995.36
2019,02,14,02,13,995.36
2019,02,14,02,14,995.36
2019,02,14,02,15,994.89
2019,02,14,02,16,994.89
2019,02,14,02,17,994.89
2019,02,14,02,18,994.89
2019,02,14,02,19,994.89
2019,02,14,02,20,994.89
2019,02,14,02,21,994.89
2019,02,14,02,22,994.89
2019,02,14,02,23,994.89
2019,02,14,02,24,994.89
2019,02,14,02,25,994.89
2019,02,14,02,26,994.89
2019,02,14,02,27,994.89
2019,02,14,02,28,994.89
2019,02,14,02,29,994.89
2019,02,14,02,30,994.85
2019,02,14,02,31,994.85
2019,02,14,02,32,994.85
2019,02,14,02,33,994.85
2019,02,14,02,34,994.85
2019,02,14,02,35,994.85
2019,02,14,02,36,994.85
2019,02,14,02,37,994.85
2019,02,14,02,38,994.85
2019,02,14,02,39,994.85
2019,02,14,02,40,994.85
2019,02,14,02,41,994.85
2019,02,14,02,42,994.85
2019,02,14,02,43,994.85
2019,02,14,02,44,994.85
2019,02,14,02,45,994.41
2019,02,14,02,46,994.41
2019,02,14,02,47,994.41
2019,02,14,02,48,994.41
2019,02,14,02,49,994.41
2019,02,14,02,50,994.41
2019,02,14,02,51,994.41
2019,02,14,02,52,994.41
2019,02,14,02,53,994.41
2019,02,14,02,54,994.41
2019,02,14,02,55,994.41
2019,02,14,02,56,994.41
2019,02,14,02,57,994.41
2019,02,14,02,58,994.41
2019,02,14,02,59,994.41
2019,02,14,03,00,994.25
2019,02,14,03,01,994.24
2019,02,14,03,02,994.24
2019,02,14,03,03,994.24
2019,02,14,03,04,994.24
2019,02,14,03,05,994.24
2019,02,14,03,06,994.24
2019,02,14,03,07,994.24
2019,02,14,03,08,994.24
2019,02,14,03,09,994.24
2019,02,14,03,10,994.24
2019,02,14,03,11,994.24
2019,02,14,03,12,994.24
2019,02,14,03,13,994.24
2019,02,14,03,14,994.24
2019,02,14,03,15,994.04
2019,02,14,03,16,994.04
2019,02,14,03,17,994.04
2019,02,14,03,18,994.04
2019,02,14,03,19,994.04
2019,02,14,03,20,994.04
2019,02,14,03,21,994.04
2019,02,14,03,22,994.04
2019,02,14,03,23,994.04
2019,02,14,03,24,994.04
2019,02,14,03,25,994.04
2019,02,14,03,26,994.04
2019,02,14,03,27,994.04
2019,02,14,03,28,994.04
2019,02,14,03,29,994.04
2019,02,14,03,30,993.77
2019,02,14,03,31,993.77
2019,02,14,03,32,993.77
2019,02,14,03,33,993.77
2019,02,14,03,34,993.77
2019,02,14,03,35,993.77
2019,02,14,03,36,993.77
2019,02,14,03,37,993.77
2019,02,14,03,38,993.77
2019,02,14,03,39,993.77
2019,02,14,03,40,993.77
2019,02,14,03,41,993.77
2019,02,14,03,42,993.77
2019,02,14,03,43,993.77
2019,02,14,03,44,993.77
2019,02,14,03,45,993.60
2019,02,14,03,46,993.60
2019,02,14,03,47,993.60
2019,02,14,03,48,993.60
2019,02,14,03,49,993.60
2019,02,14,03,50,993.60
2019,02,14,03,51,993.60
2019,02,14,03,52,993.60
2019,02,14,03,53,993.60
2019,02,14,03,54,993.60
2019,02,14,03,55,993.60
2019,02,14,03,56,993.60
2019,02,14,03,57,993.60
2019,02,14,03,58,993.60
2019,02,14,03,59,993.60
2019,02,14,04,00,993.30
2019,02,14,04,01,993.30
2019,02,14,04,02,993.30
2019,02,14,04,03,993.30
2019,02,14,04,04,993.30
2019,02,14,04,05,993.30
2019,02,14,04,06,993.30
2019,02,14,04,07,993.30
2019,02,14,04,08,993.30
2019,02,14,04,09,993.30
2019,02,14,04,10,993.30
2019,02,14,04,11,993.30
2019,02,14,04,12,993.30
2019,02,14,04,13,993.30
2019,02,14,04,14,993.30
2019,02,14,04,15,993.14
2019,02,14,04,16,993.13
2019,02,14,04,17,993.13
2019,02,14,04,18,993.13
2019,02,14,04,19,993.13
2019,02,14,04,20,993.13
2019,02,14,04,21,993.13
2019,02,14,04,22,993.13
2019,02,14,04,23,993.13
2019,02,14,04,24,993.13
2019,02,14,04,25,993.13
2019,02,14,04,26,993.13
2019,02,14,04,27,993.13
2019,02,14,04,28,993.13
2019,02,14,04,29,993.13
2019,02,14,04,30,992.79
2019,02,14,04,31,992.79
2019,02,14,04,32,992.79
2019,02,14,04,33,992.79
2019,02,14,04,34,992.79
2019,02,14,04,35,992.79
2019,02,14,04,36,992.79
2019,02,14,04,37,992.79
2019,02,14,04,38,992.79
2019,02,14,04,39,992.79
2019,02,14,04,40,992.79
2019,02,14,04,41,992.79
2019,02,14,04,42,992.79
2019,02,14,04,43,992.79
2019,02,14,04,44,992.79
2019,02,14,04,45,992.47
2019,02,14,04,46,992.45
2019,02,14,04,47,992.45
2019,02,14,04,48,992.45
2019,02,14,04,49,992.45
2019,02,14,04,50,992.45
2019,02,14,04,51,992.45
2019,02,14,04,52,992.45
2019,02,14,04,53,992.45
2019,02,14,04,54,992.45
2019,02,14,04,55,992.45
2019,02,14,04,56,992.45
2019,02,14,04,57,992.45
2019,02,14,04,58,992.45
2019,02,14,04,59,992.45
2019,02,14,05,00,992.29
2019,02,14,05,01,992.28
2019,02,14,05,02,992.28
2019,02,14,05,03,992.28
2019,02,14,05,04,992.28
2019,02,14,05,05,992.28
2019,02,14,05,06,992.28
2019,02,14,05,07,992.28
2019,02,14,05,08,992.28
2019,02,14,05,09,992.28
2019,02,14,05,10,992.28
2019,02,14,05,11,992.28
2019,02,14,05,12,992.28
2019,02,14,05,13,992.28
2019,02,14,05,14,992.28
2019,02,14,05,15,992.15
2019,02,14,05,16,992.14
2019,02,14,05,17,992.14
2019,02,14,05,18,992.14
2019,02,14,05,19,992.14
2019,02,14,05,20,992.14
2019,02,14,05,21,992.14
2019,02,14,05,22,992.14
2019,02,14,05,23,992.14
2019,02,14,05,24,992.14
2019,02,14,05,25,992.14
2019,02,14,05,26,992.14
2019,02,14,05,27,992.14
2019,02,14,05,28,992.14
2019,02,14,05,29,992.14
2019,02,14,05,30,991.94
2019,02,14,05,31,991.94
2019,02,14,05,32,991.94
2019,02,14,05,33,991.94
2019,02,14,05,34,991.94
2019,02,14,05,35,991.94
2019,02,14,05,36,991.94
2019,02,14,05,37,991.94
2019,02,14,05,38,991.94
2019,02,14,05,39,991.94
2019,02,14,05,40,991.94
2019,02,14,05,41,991.94
2019,02,14,05,42,991.94
2019,02,14,05,43,991.94
2019,02,14,05,44,991.94
2019,02,14,05,45,991.77
2019,02,14,05,46,991.77
2019,02,14,05,47,991.77
2019,02,14,05,48,991.77
2019,02,14,05,49,991.77
2019,02,14,05,50,991.77
2019,02,14,05,51,991.77
2019,02,14,05,52,991.77
2019,02,14,05,53,991.77
2019,02,14,05,54,991.77
2019,02,14,05,55,991.77
2019,02,14,05,56,991.77
2019,02,14,05,57,991.77
2019,02,14,05,58,991.77
2019,02,14,05,59,991.77
2019,02,14,06,00,991.30
2019,02,14,06,01,991.30
2019,02,14,06,02,991.30
2019,02,14,06,03,991.30
2019,02,14,06,04,991.30
2019,02,14,06,05,991.30
2019,02,14,06,06,991.30
2019,02,14,06,07,991.30
2019,02,14,06,08,991.30
2019,02,14,06,09,991.30
2019,02,14,06,10,991.30
2019,02,14,06,11,991.30
2019,02,14,06,12,991.30
2019,02,14,06,13,991.30
2019,02,14,06,14,991.30
2019,02,14,06,15,991.07
2019,02,14,06,16,991.06
2019,02,14,06,17,991.06
2019,02,14,06,18,991.06
2019,02,14,06,19,991.06
2019,02,14,06,20,991.06
2019,02,14,06,21,991.06
2019,02,14,06,22,991.06
2019,02,14,06,23,991.06
2019,02,14,06,24,991.06
2019,02,14,06,25,991.06
2019,02,14,06,26,991.06
2019,02,14,06,27,991.06
2019,02,14,06,28,991.06
2019,02,14,06,29,991.06
2019,02,14,06,30,990.71
2019,02,14,06,31,990.69
2019,02,14,06,32,990.69
2019,02,14,06,33,990.69
2019,02,14,06,34,990.69
2019,02,14,06,35,990.69
2019,02,14,06,36,990.69
2019,02,14,06,37,990.69
2019,02,14,06,38,990.69
2019,02,14,06,39,990.69
2019,02,14,06,40,990.69
2019,02,14,06,41,990.69
2019,02,14,06,42,990.69
2019,02,14,06,43,990.69
2019,02,14,06,44,990.69
2019,02,14,06,45,990.27
2019,02,14,06,46,990.25
2019,02,14,06,47,990.25
2019,02,14,06,48,990.25
2019,02,14,06,49,990.25
2019,02,14,06,50,990.25
2019,02,14,06,51,990.25
2019,02,14,06,52,990.25
2019,02,14,06,53,990.25
2019,02,14,06,54,990.25
2019,02,14,06,55,990.25
2019,02,14,06,56,990.25
2019,02,14,06,57,990.25
2019,02,14,06,58,990.25
2019,02,14,06,59,990.25
2019,02,14,07,00,990.09
2019,02,14,07,01,990.08
2019,02,14,07,02,990.08
2019,02,14,07,03,990.08
2019,02,14,07,04,990.08
2019,02,14,07,05,990.08
2019,02,14,07,06,990.08
2019,02,14,07,07,990.08
2019,02,14,07,08,990.08
2019,02,14,07,09,990.08
2019,02,14,07,10,990.08
2019,02,14,07,11,990.08
2019,02,14,07,12,990.08
2019,02,14,07,13,990.08
2019,02,14,07,14,990.08
2019,02,14,07,15,989.62
2019,02,14,07,16,989.60
2019,02,14,07,17,989.60
2019,02,14,07,18,989.60
2019,02,14,07,19,989.60
2019,02,14,07,20,989.60
2019,02,14,07,21,989.60
2019,02,14,07,22,989.60
2019,02,14,07,23,989.60
2019,02,14,07,24,989.60
2019,02,14,07,25,989.60
2019,02,14,07,26,989.60
2019,02,14,07,27,989.60
2019,02,14,07,28,989.60
2019,02,14,07,29,989.60
2019,02,14,07,30,989.23
2019,02,14,07,31,989.23
2019,02,14,07,32,989.23
2019,02,14,07,33,989.23
2019,02,14,07,34,989.23
2019,02,14,07,35,989.23
2019,02,14,07,36,989.23
2019,02,14,07,37,989.23
2019,02,14,07,38,989.23
2019,02,14,07,39,989.23
2019,02,14,07,40,989.23
2019,02,14,07,41,989.23
2019,02,14,07,42,989.23
2019,02,14,07,43,989.23
2019,02,14,07,44,989.23
2019,02,14,07,45,989.20
2019,02,14,07,46,989.20
2019,02,14,07,47,989.20
2019,02,14,07,48,989.20
2019,02,14,07,49,989.20
2019,02,14,07,50,989.20
2019,02,14,07,51,989.20
2019,02,14,07,52,989.20
2019,02,14,07,53,989.20
2019,02,14,07,54,989.20
2019,02,14,07,55,989.20
2019,02,14,07,56,989.20
2019,02,14,07,57,989.20
2019,02,14,07,58,989.20
2019,02,14,07,59,989.20
2019,02,14,08,00,988.71
2019,02,14,08,01,988.69
2019,02,14,08,02,988.69
2019,02,14,08,03,988.69
2019,02,14,08,04,988.69
2019,02,14,08,05,988.69
2019,02,14,08,06,988.69
2019,02,14,08,07,988.69
2019,02,14,08,08,988.69
2019,02,14,08,09,988.69
2019,02,14,08,10,988.69
2019,02,14,08,11,988.69
2019,02,14,08,12,988.69
2019,02,14,08,13,988.69
2019,02,14,08,14,988.69
2019,02,14,08,15,988.69
2019,02,14,08,16,988.69
2019,02,14,08,17,988.69
2019,02,14,08,18,988.69
2019,02,14,08,19,988.69
2019,02,14,08,20,988.69
2019,02,14,08,21,988.69
2019,02,14,08,22,988.69
2019,02,14,08,23,988.69
2019,02,14,08,24,988.69
2019,02,14,08,25,988.69
2019,02,14,08,26,988.69
2019,02,14,08,27,988.69
2019,02,14,08,28,988.69
2019,02,14,08,29,988.69
2019,02,14,08,30,988.66
2019,02,14,08,31,988.66
2019,02,14,08,32,988.66
2019,02,14,08,33,988.66
2019,02,14,08,34,988.66
2019,02,14,08,35,988.66
2019,02,14,08,36,988.66
2019,02,14,08,37,988.66
2019,02,14,08,38,988.66
2019,02,14,08,39,988.66
2019,02,14,08,40,988.66
2019,02,14,08,41,988.66
2019,02,14,08,42,988.66
2019,02,14,08,43,988.66
2019,02,14,08,44,988.66
2019,02,14,08,45,988.53
2019,02,14,08,46,988.52
2019,02,14,08,47,988.52
2019,02,14,08,48,988.52
2019,02,14,08,49,988.52
2019,02,14,08,50,988.52
2019,02,14,08,51,988.52
2019,02,14,08,52,988.52
2019,02,14,08,53,988.52
2019,02,14,08,54,988.52
2019,02,14,08,55,988.52
2019,02,14,08,56,988.52
2019,02,14,08,57,988.52
2019,02,14,08,58,988.52
2019,02,14,08,59,988.52
2019,02,14,09,00,988.17
2019,02,14,09,01,988.15
2019,02,14,09,02,988.15
2019,02,14,09,03,988.15
2019,02,14,09,04,988.15
2019,02,14,09,05,988.15
2019,02,14,09,06,988.15
2019,02,14,09,07,988.15
2019,02,14,09,08,988.15
2019,02,14,09,09,988.15
2019,02,14,09,10,988.15
2019,02,14,09,11,988.15
2019,02,14,09,12,988.15
2019,02,14,09,13,988.15
2019,02,14,09,14,988.15
2019,02,14,09,15,988.08
2019,02,14,09,16,988.08
2019,02,14,09,17,988.08
2019,02,14,09,18,988.08
2019,02,14,09,19,988.08
2019,02,14,09,20,988.08
2019,02,14,09,21,988.08
2019,02,14,09,22,988.08
2019,02,14,09,23,988.08
2019,02,14,09,24,988.08
2019,02,14,09,25,988.08
2019,02,14,09,26,988.08
2019,02,14,09,27,988.08
2019,02,14,09,28,988.08
2019,02,14,09,29,988.08
2019,02,14,09,30,987.69
2019,02,14,09,31,987.67
2019,02,14,09,32,987.67
2019,02,14,09,33,987.67
2019,02,14,09,34,987.67
2019,02,14,09,35,987.67
2019,02,14,09,36,987.67
2019,02,14,09,37,987.67
2019,02,14,09,38,987.67
2019,02,14,09,39,987.67
2019,02,14,09,40,987.67
2019,02,14,09,41,987.67
2019,02,14,09,42,987.67
2019,02,14,09,43,987.67
2019,02,14,09,44,987.67
2019,02,14,09,45,987.58
2019,02,14,09,46,987.57
2019,02,14,09,47,987.57
2019,02,14,09,48,987.57
2019,02,14,09,49,987.57
2019,02,14,09,50,987.57
2019,02,14,09,51,987.57
2019,02,14,09,52,987.57
2019,02,14,09,53,987.57
2019,02,14,09,54,987.57
2019,02,14,09,55,987.57
2019,02,14,09,56,987.57
2019,02,14,09,57,987.57
2019,02,14,09,58,987.57
2019,02,14,09,59,987.57
2019,02,14,10,00,987.57
2019,02,14,10,01,987.57
2019,02,14,10,02,987.57
2019,02,14,10,03,987.57
2019,02,14,10,04,987.57
2019,02,14,10,05,987.57
2019,02,14,10,06,987.57
2019,02,14,10,07,987.57
2019,02,14,10,08,987.57
2019,02,14,10,09,987.57
2019,02,14,10,10,987.57
2019,02,14,10,11,987.57
2019,02,14,10,12,987.57
2019,02,14,10,13,987.57
2019,02,14,10,14,987.57
2019,02,14,10,15,987.31
2019,02,14,10,16,987.30
2019,02,14,10,17,987.30
2019,02,14,10,18,987.30
2019,02,14,10,19,987.30
2019,02,14,10,20,987.30
2019,02,14,10,21,987.30
2019,02,14,10,22,987.30
2019,02,14,10,23,987.30
2019,02,14,10,24,987.30
2019,02,14,10,25,987.30
2019,02,14,10,26,987.30
2019,02,14,10,27,987.30
2019,02,14,10,28,987.30
2019,02,14,10,29,987.30
2019,02,14,10,30,987.07
2019,02,14,10,31,987.06
2019,02,14,10,32,987.06
2019,02,14,10,33,987.06
2019,02,14,10,34,987.06
2019,02,14,10,35,987.06
2019,02,14,10,36,987.06
2019,02,14,10,37,987.06
2019,02,14,10,38,987.06
2019,02,14,10,39,987.06
2019,02,14,10,40,987.06
2019,02,14,10,41,987.06
2019,02,14,10,42,987.06
2019,02,14,10,43,987.06
2019,02,14,10,44,987.06
2019,02,14,10,45,986.80
2019,02,14,10,46,986.79
2019,02,14,10,47,986.79
2019,02,14,10,48,986.79
2019,02,14,10,49,986.79
2019,02,14,10,50,986.79
2019,02,14,10,51,986.79
2019,02,14,10,52,986.79
2019,02,14,10,53,986.79
2019,02,14,10,54,986.79
2019,02,14,10,55,986.79
2019,02,14,10,56,986.79
2019,02,14,10,57,986.79
2019,02,14,10,58,986.79
2019,02,14,10,59,986.79
2019,02,14,11,00,986.79
2019,02,14,11,01,986.79
2019,02,14,11,02,986.79
2019,02,14,11,03,986.79
2019,02,14,11,04,986.79
2019,02,14,11,05,986.79
2019,02,14,11,06,986.79
2019,02,14,11,07,986.79
2019,02,14,11,08,986.79
2019,02,14,11,09,986.79
2019,02,14,11,10,986.79
2019,02,14,11,11,986.79
2019,02,14,11,12,986.79
2019,02,14,11,13,986.79
2019,02,14,11,14,986.79
2019,02,14,11,15,986.57
2019,02,14,11,16,986.56
2019,02,14,11,17,986.56
2019,02,14,11,18,986.56
2019,02,14,11,19,986.56
2019,02,14,11,20,986.56
2019,02,14,11,21,986.56
2019,02,14,11,22,986.56
2019,02,14,11,23,986.56
2019,02,14,11,24,986.56
2019,02,14,11,25,986.56
2019,02,14,11,26,986.56
2019,02,14,11,27,986.56
2019,02,14,11,28,986.56
2019,02,14,11,29,986.56
2019,02,14,11,30,986.49
2019,02,14,11,31,986.49
2019,02,14,11,32,986.49
2019,02,14,11,33,986.49
2019,02,14,11,34,986.49
2019,02,14,11,35,986.49
2019,02,14,11,36,986.49
2019,02,14,11,37,986.49
2019,02,14,11,38,986.49
2019,02,14,11,39,986.49
2019,02,14,11,40,986.49
2019,02,14,11,41,986.49
2019,02,14,11,42,986.49
2019,02,14,11,43,986.49
2019,02,14,11,44,986.49
2019,02,14,11,45,986.14
2019,02,14,11,46,986.12
2019,02,14,11,47,986.12
2019,02,14,11,48,986.12
2019,02,14,11,49,986.12
2019,02,14,11,50,986.12
2019,02,14,11,51,986.12
2019,02,14,11,52,986.12
2019,02,14,11,53,986.12
2019,02,14,11,54,986.12
2019,02,14,11,55,986.12
2019,02,14,11,56,986.12
2019,02,14,11,57,986.12
2019,02,14,11,58,986.12
2019,02,14,11,59,986.12
2019,02,14,12,00,985.99
2019,02,14,12,01,985.98
2019,02,14,12,02,985.98
2019,02,14,12,03,985.98
2019,02,14,12,04,985.98
2019,02,14,12,05,985.98
2019,02,14,12,06,985.98
2019,02,14,12,07,985.98
2019,02,14,12,08,985.98
2019,02,14,12,09,985.98
2019,02,14,12,10,985.98
2019,02,14,12,11,985.98
2019,02,14,12,12,985.98
2019,02,14,12,13,985.98
2019,02,14,12,14,985.98
2019,02,14,12,15,985.56
2019,02,14,12,16,985.54
2019,02,14,12,17,985.54
2019,02,14,12,18,985.54
2019,02,14,12,19,985.54
2019,02,14,12,20,985.54
2019,02,14,12,21,985.54
2019,02,14,12,22,985.54
2019,02,14,12,23,985.54
2019,02,14,12,24,985.54
2019,02,14,12,25,985.54
2019,02,14,12,26,985.54
2019,02,14,12,27,985.54
2019,02,14,12,28,985.54
2019,02,14,12,29,985.54
2019,02,14,12,30,985.22
2019,02,14,12,31,985.20
2019,02,14,12,32,985.20
2019,02,14,12,33,985.20
2019,02,14,12,34,985.20
2019,02,14,12,35,985.20
2019,02,14,12,36,985.20
2019,02,14,12,37,985.20
2019,02,14,12,38,985.20
2019,02,14,12,39,985.20
2019,02,14,12,40,985.20
2019,02,14,12,41,985.20
2019,02,14,12,42,985.20
2019,02,14,12,43,985.20
2019,02,14,12,44,985.20
2019,02,14,12,45,984.95
2019,02,14,12,46,984.93
2019,02,14,12,47,984.93
2019,02,14,12,48,984.93
2019,02,14,12,49,984.93
2019,02,14,12,50,984.93
2019,02,14,12,51,984.93
2019,02,14,12,52,984.93
2019,02,14,12,53,984.93
2019,02,14,12,54,984.93
2019,02,14,12,55,984.93
2019,02,14,12,56,984.93
2019,02,14,12,57,984.93
2019,02,14,12,58,984.93
2019,02,14,12,59,984.93
2019,02,14,13,00,984.51
2019,02,14,13,01,984.49
2019,02,14,13,02,984.49
2019,02,14,13,03,984.49
2019,02,14,13,04,984.49
2019,02,14,13,05,984.49
2019,02,14,13,06,984.49
2019,02,14,13,07,984.49
2019,02,14,13,08,984.49
2019,02,14,13,09,984.49
2019,02,14,13,10,984.49
2019,02,14,13,11,984.49
2019,02,14,13,12,984.49
2019,02,14,13,13,984.49
2019,02,14,13,14,984.49
2019,02,14,13,15,984.16
2019,02,14,13,16,984.15
2019,02,14,13,17,984.15
2019,02,14,13,18,984.15
2019,02,14,13,19,984.15
2019,02,14,13,20,984.15
2019,02,14,13,21,984.15
2019,02,14,13,22,984.15
2019,02,14,13,23,984.15
2019,02,14,13,24,984.15
2019,02,14,13,25,984.15
2019,02,14,13,26,984.15
2019,02,14,13,27,984.15
2019,02,14,13,28,984.15
2019,02,14,13,29,984.15
2019,02,14,13,30,983.96
2019,02,14,13,31,983.95
2019,02,14,13,32,983.95
2019,02,14,13,33,983.95
2019,02,14,13,34,983.95
2019,02,14,13,35,983.95
2019,02,14,13,36,983.95
2019,02,14,13,37,983.95
2019,02,14,13,38,983.95
2019,02,14,13,39,983.95
2019,02,14,13,40,983.95
2019,02,14,13,41,983.95
2019,02,14,13,42,983.95
2019,02,14,13,43,983.95
2019,02,14,13,44,983.95
2019,02,14,13,45,983.69
2019,02,14,13,46,983.68
2019,02,14,13,47,983.68
2019,02,14,13,48,983.68
2019,02,14,13,49,983.68
2019,02,14,13,50,983.68
2019,02,14,13,51,983.68
2019,02,14,13,52,983.68
2019,02,14,13,53,983.68
2019,02,14,13,54,983.68
2019,02,14,13,55,983.68
2019,02,14,13,56,983.68
2019,02,14,13,57,983.68
2019,02,14,13,58,983.68
2019,02,14,13,59,983.68
2019,02,14,14,00,983.49
2019,02,14,14,01,983.48
2019,02,14,14,02,983.48
2019,02,14,14,03,983.48
2019,02,14,14,04,983.48
2019,02,14,14,05,983.48
2019,02,14,14,06,983.48
2019,02,14,14,07,983.48
2019,02,14,14,08,983.48
2019,02,14,14,09,983.48
2019,02,14,14,10,983.48
2019,02,14,14,11,983.48
2019,02,14,14,12,983.48
2019,02,14,14,13,983.48
2019,02,14,14,14,983.48
2019,02,14,14,15,983.38
2019,02,14,14,16,983.37
2019,02,14,14,17,983.37
2019,02,14,14,18,983.37
2019,02,14,14,19,983.37
2019,02,14,14,20,983.37
2019,02,14,14,21,983.37
2019,02,14,14,22,983.37
2019,02,14,14,23,983.37
2019,02,14,14,24,983.37
2019,02,14,14,25,983.37
2019,02,14,14,26,983.37
2019,02,14,14,27,983.37
2019,02,14,14,28,983.37
2019,02,14,14,29,983.37
2019,02,14,14,30,983.11
2019,02,14,14,31,983.10
2019,02,14,14,32,983.10
2019,02,14,14,33,983.10
2019,02,14,14,34,983.10
2019,02,14,14,35,983.10
2019,02,14,14,36,983.10
2019,02,14,14,37,983.10
2019,02,14,14,38,983.10
2019,02,14,14,39,983.10
2019,02,14,14,40,983.10
2019,02,14,14,41,983.10
2019,02,14,14,42,983.10
2019,02,14,14,43,983.10
2019,02,14,14,44,983.10
2019,02,14,14,45,983.01
2019,02,14,14,46,983.00
2019,02,14,14,47,983.00
2019,02,14,14,48,983.00
2019,02,14,14,49,983.00
2019,02,14,14,50,983.00
2019,02,14,14,51,983.00
2019,02,14,14,52,983.00
2019,02,14,14,53,983.00
2019,02,14,14,54,983.00
2019,02,14,14,55,983.00
2019,02,14,14,56,983.00
2019,02,14,14,57,983.00
2019,02,14,14,58,983.00
2019,02,14,14,59,983.00
2019,02,14,15,00,982.97
2019,02,14,15,01,982.97
2019,02,14,15,02,982.97
2019,02,14,15,03,982.97
2019,02,14,15,04,982.97
2019,02,14,15,05,982.97
2019,02,14,15,06,982.97
2019,02,14,15,07,982.97
2019,02,14,15,08,982.97
2019,02,14,15,09,982.97
2019,02,14,15,10,982.97
2019,02,14,15,11,982.97
2019,02,14,15,12,982.97
2019,02,14,15,13,982.97
2019,02,14,15,14,982.97
2019,02,14,15,15,983.06
2019,02,14,15,16,983.07
2019,02,14,15,17,983.07
2019,02,14,15,18,983.07
2019,02,14,15,19,983.07
2019,02,14,15,20,983.07
2019,02,14,15,21,983.07
2019,02,14,15,22,983.07
2019,02,14,15,23,983.07
2019,02,14,15,24,983.07
2019,02,14,15,25,983.07
2019,02,14,15,26,983.07
2019,02,14,15,27,983.07
2019,02,14,15,28,983.07
2019,02,14,15,29,983.07
2019,02,14,15,30,983.36
2019,02,14,15,31,983.37
2019,02,14,15,32,983.37
2019,02,14,15,33,983.37
2019,02,14,15,34,983.37
2019,02,14,15,35,983.37
2019,02,14,15,36,983.37
2019,02,14,15,37,983.37
2019,02,14,15,38,983.37
2019,02,14,15,39,983.37
2019,02,14,15,40,983.37
2019,02,14,15,41,983.37
2019,02,14,15,42,983.37
2019,02,14,15,43,983.37
2019,02,14,15,44,983.37
2019,02,14,15,45,983.41
2019,02,14,15,46,983.41
2019,02,14,15,47,983.41
2019,02,14,15,48,983.41
2019,02,14,15,49,983.41
2019,02,14,15,50,983.41
2019,02,14,15,51,983.41
2019,02,14,15,52,983.41
2019,02,14,15,53,983.41
2019,02,14,15,54,983.41
2019,02,14,15,55,983.41
2019,02,14,15,56,983.41
2019,02,14,15,57,983.41
2019,02,14,15,58,983.41
2019,02,14,15,59,983.41
2019,02,14,16,00,983.44
2019,02,14,16,01,983.44
2019,02,14,16,02,983.44
2019,02,14,16,03,983.44
2019,02,14,16,04,983.44
2019,02,14,16,05,983.44
2019,02,14,16,06,983.44
2019,02,14,16,07,983.44
2019,02,14,16,08,983.44
2019,02,14,16,09,983.44
2019,02,14,16,10,983.44
2019,02,14,16,11,983.44
2019,02,14,16,12,983.44
2019,02,14,16,13,983.44
2019,02,14,16,14,983.44
2019,02,14,16,15,983.44
2019,02,14,16,16,983.44
2019,02,14,16,17,983.44
2019,02,14,16,18,983.44
2019,02,14,16,19,983.44
2019,02,14,16,20,983.44
2019,02,14,16,21,983.44
2019,02,14,16,22,983.44
2019,02,14,16,23,983.44
2019,02,14,16,24,983.44
2019,02,14,16,25,983.44
2019,02,14,16,26,983.44
2019,02,14,16,27,983.44
2019,02,14,16,28,983.44
2019,02,14,16,29,983.44
2019,02,14,16,30,983.44
2019,02,14,16,31,983.44
2019,02,14,16,32,983.44
2019,02,14,16,33,983.44
2019,02,14,16,34,983.44
2019,02,14,16,35,983.44
2019,02,14,16,36,983.44